Yeovilton, United Kingdom

11:18 PM BST on October 18, 2017 (GMT +0100)
Yeovil Radar Navy

Weather History for EGDY - September, 2012

Change the Weather History Date:

Sunday, September 2, 2012

  Actual Average Record
Temperature  
Mean Temperature 60 °F -  
Max Temperature 66 °F 64 °F 75 °F (1999)
Min Temperature 54 °F 48 °F 41 °F (2002)
Degree Days  
Heating Degree Days 5    
Growing Degree Days 10 (Base 50)    
Moisture  
Dew Point 58 °F    
Average Humidity 91    
Maximum Humidity 100    
Minimum Humidity 79    
Precipitation  
Precipitation 0.02 in - - ()
Sea Level Pressure  
Sea Level Pressure 30.27 in    
Wind  
Wind Speed 5 mph ()    
Max Wind Speed 8 mph    
Max Gust Speed -    
Visibility 6.2 miles    
Events Rain    
Averages and records for this station are not official NWS values.
T = Trace of Precipitation, MM = Missing Value Source: Averaged Metar Reports

Daily Weather History Graph

Daily Weather History Graph

Search for Another Location

Airport or City:

Trip Planner

Search our weather history database for the weather conditions in past years. The results will help you decide how hot, cold, wet, or windy it might be!

Date:

Astronomy

Sep. 02, 2012 Rise Set
Actual Time 6:25 AM BST 7:53 PM BST
Civil Twilight 5:51 AM BST 8:27 PM BST
Nautical Twilight 5:09 AM BST 9:09 PM BST
Astronomical Twilight 4:23 AM BST 9:54 PM BST
Moon 8:09 PM BST (9/2) 8:40 AM BST (9/2)
Length of Visible Light 14h 35m
Length of Day
13h 27m
Waning Gibbous, 96% of the Moon is Illuminated
Sep 2
Waning Gibbous
Sep 8
Last Quarter
Sep 16
New
Sep 22
First Quarter
Sep 30
Full

Hourly Weather History & Observations

Time (BST) Temp. Dew Point Humidity Pressure Visibility Wind Dir Wind Speed Gust Speed Precip Events Conditions
12:50 AM 56 °F 53 °F 86% 30.30 in 19 mi SW 5.8 mph - -   Partly Cloudy
12:50 AM 55.4 °F 53.6 °F 94% 30.27 in 6.2 mi SW 5.8 mph - N/A   Scattered Clouds
1:50 AM 55.4 °F 53.6 °F 94% 30.27 in 6.2 mi SW 5.8 mph - N/A   Scattered Clouds
2:50 AM 55.4 °F 51.8 °F 88% 30.27 in 6.2 mi South 4.6 mph - N/A   Mostly Cloudy
3:50 AM 55 °F 53 °F 89% 30.27 in 16 mi South 6.9 mph - -   Partly Cloudy
3:50 AM 55.4 °F 53.6 °F 94% 30.24 in 6.2 mi South 6.9 mph - N/A   Scattered Clouds
4:50 AM 55.4 °F 53.6 °F 94% 30.24 in 6.2 mi SW 5.8 mph - N/A   Scattered Clouds
5:50 AM 57.2 °F 53.6 °F 88% 30.24 in 6.2 mi SW 4.6 mph - N/A   Mostly Cloudy
6:50 AM 56 °F 54 °F 89% 30.26 in 6 mi South 5.8 mph - -   Partly Cloudy
6:50 AM 55.4 °F 53.6 °F 94% 30.24 in 6.2 mi South 5.8 mph - N/A   Scattered Clouds
7:50 AM 57.2 °F 55.4 °F 94% 30.24 in 6.2 mi SSW 5.8 mph - N/A   Mostly Cloudy
8:50 AM 59.0 °F 55.4 °F 88% 30.24 in 6.2 mi SW 5.8 mph - N/A   Mostly Cloudy
9:50 AM 60 °F 57 °F 85% 30.29 in 7 mi WSW 6.9 mph - -   Overcast
9:50 AM 60.8 °F 57.2 °F 88% 30.27 in 6.2 mi WSW 6.9 mph - N/A   Mostly Cloudy
10:50 AM 60.8 °F 57.2 °F 88% 30.27 in 6.2 mi SW 6.9 mph - N/A Rain Light Rain
11:50 AM 64.4 °F 59.0 °F 83% 30.27 in 6.2 mi SW 8.1 mph - N/A   Scattered Clouds
12:50 PM 64 °F 59 °F 79% 30.27 in 9 mi SW 6.9 mph - -   Partly Cloudy
12:50 PM 64.4 °F 59.0 °F 83% 30.27 in 6.2 mi SW 6.9 mph - N/A   Mostly Cloudy
1:50 PM 64.4 °F 60.8 °F 88% 30.27 in 6.2 mi WSW 8.1 mph - N/A   Mostly Cloudy
2:50 PM 66.2 °F 60.8 °F 83% 30.27 in 6.2 mi WSW 6.9 mph - N/A   Mostly Cloudy
3:50 PM 65 °F 62 °F 86% 30.27 in 5 mi WNW 8.1 mph - -   Overcast
3:50 PM 64.4 °F 62.6 °F 94% 30.27 in 5.0 mi WNW 8.1 mph - N/A   Mostly Cloudy
4:50 PM 64.4 °F 62.6 °F 94% 30.27 in 2.5 mi NW 5.8 mph - N/A Rain Light Rain
5:27 PM 64.4 °F 62.6 °F 94% 30.27 in 1.6 mi NW 6.9 mph - N/A Rain Light Rain
5:50 PM 64.4 °F 62.6 °F 94% 30.27 in 3.7 mi NW 4.6 mph - N/A   Mostly Cloudy
6:50 PM 63 °F 62 °F 96% 30.29 in 2 mi NW 6.9 mph - - Rain Rain Showers
6:50 PM 62.6 °F 62.6 °F 100% 30.27 in - NW 6.9 mph - N/A Rain Rain Showers
7:50 PM 62.6 °F 62.6 °F 100% 30.27 in 6.2 mi WNW 3.5 mph - N/A   Mostly Cloudy
8:50 PM 62.6 °F 62.6 °F 100% 30.30 in - West 3.5 mph - N/A   Mostly Cloudy
9:50 PM 62 °F 62 °F 98% 30.32 in 5 mi WNW 3.5 mph - - Rain Rain
9:50 PM 62.6 °F 60.8 °F 94% 30.30 in 5.0 mi WNW 3.5 mph - N/A   Mostly Cloudy
10:50 PM 62.6 °F 62.6 °F 100% 30.30 in 6.2 mi NW 3.5 mph - N/A   Mostly Cloudy
11:50 PM 60.8 °F 60.8 °F 100% 30.30 in 0.7 mi NNW 5.8 mph - N/A   Overcast